[[{"header":{"parameterUnit":"m.s-1","parameterCategory":2,"la1":30.2991,"la2":30.254,"lo1":-89.0895,"lo2":-89.0444,"dy":0.0017,"dx":0.0017,"nx":28,"ny":28,"refTime":"2025-04-21T21:00:00:Z","depth":"0","parameterNumber":2,"parameterNumberName":"U-component_of_CURRENTS"},"data":[0,0,0,0,0,0,0,0,0,0,0,0,0,0,0,0,0,0,0,0,0,0,0,0,0,0,0,0,0,0,0,0,0,0,0,0,0,0,0,0,0,0,0,0,0,0,0,0,0,0,0,0,0,0,0,0,0,0,0.1727,0.1728,0,0.1747,0.1747,0.1747,0.1743,0.1743,0.1743,0.1743,0.168,0.1678,0.1677,0,0,0,0,0,0,0,0,0,0,0,0,0,0.1696,0.1696,0.1727,0.1728,0.1729,0.1747,0.1747,0.1747,0.1743,0.1743,0.1743,0.1743,0.1681,0.1678,0.1676,0,0,0,0,0,0,0,0,0,0,0,0,0,0.1708,0.1696,0.1727,0.1732,0.1733,0.1747,0.1747,0.1747,0.1743,0.1743,0.1743,0.1743,0.1681,0.1679,0.1676,0.1658,0,0,0.1668,0.1667,0,0,0,0,0,0,0,0,0.1707,0.1708,0.1731,0.1732,0.1733,0.1747,0.1713,0.1714,0.1743,0.1734,0.1743,0.1743,0.1697,0.1694,0.1692,0.1655,0.1652,0.1668,0.1666,0.1665,0.1664,0,0,0,0,0,0,0,0.1706,0.1707,0.173,0.1732,0.1733,0.1737,0.1738,0.1713,0.171,0.1735,0.1736,0.1746,0.1697,0.1694,0.169,0.1651,0.1668,0.1666,0.1664,0.1663,0.1668,0.167,0,0,0,0,0,0,0.1712,0.1707,0.173,0.1731,0.1725,0.1738,0.1739,0.1738,0.1712,0.171,0.1746,0.1745,0.1699,0.1693,0.1688,0.1741,0.1665,0.1663,0.1661,0.1666,0.1669,0.167,0,0,0,0,0,0,0.1711,0.1714,0.1729,0.1724,0.1727,0.1739,0.1738,0.1739,0.175,0.1722,0.1717,0.1758,0.1699,0.1691,0.1693,0.1736,0.1662,0.1659,0.1664,0.1667,0.1669,0.1798,0,0,0,0,0,0,0.171,0.1713,0.1712,0.1724,0.1727,0.176,0.1738,0.1739,0.1757,0.1758,0.1731,0.1724,0.1698,0.1697,0.169,0.1731,0.1657,0.1662,0.1666,0.1669,0.1792,0.1805,0.1816,0,0,0,0,0,0.1709,0.1713,0.1712,0.1715,0.1726,0.1761,0.1764,0.1769,0.1758,0.1776,0.176,0.1726,0.1712,0.1696,0.1688,0.1728,0.1661,0.1665,0.1668,0.1786,0.1802,0.1816,0,0,0,0,0,0,0.1691,0.1714,0.1713,0.172,0.1749,0.1763,0.1778,0.1779,0.178,0.1777,0.1741,0.1735,0.1754,0.1719,0.1702,0.174,0.1683,0.1685,0.1776,0.179,0.1802,0.1823,0.1655,0,0,0,0,0,0.1689,0.17,0.1727,0.1733,0.1753,0.1766,0.1778,0.1788,0.1794,0.1795,0.1777,0.1761,0.1761,0.1759,0.1745,0.1758,0.1775,0.178,0.1793,0.1803,0.1814,0.1884,0.1905,0.1683,0.1683,0.1683,0,0,0.168,0.1697,0.1699,0.1732,0.175,0.1787,0.1773,0.1807,0.1837,0.1785,0.181,0.1798,0.1773,0.1799,0.1805,0.1778,0.1881,0.1808,0.1817,0.1823,0.1891,0.1913,0.1932,0.1686,0.1685,0.1685,0,0,0.1685,0.1691,0.1712,0.1744,0.1789,0.1807,0.1823,0.1852,0.1868,0.1892,0.1872,0.1895,0.1872,0.1886,0.1883,0.195,0.1942,0.194,0.202,0.2089,0.2109,0.2126,0.2209,0.2232,0.1948,0.1949,0.1949,0,0.1673,0.1703,0.1725,0.1764,0.1794,0.1821,0.1861,0.1887,0.1911,0.1931,0.1915,0.1939,0.1921,0.1973,0.2006,0.1981,0.202,0.197,0.2109,0.2125,0.2141,0.2221,0.2245,0.1955,0.1955,0.1954,0.1953,0,0.1703,0.1732,0.1754,0.181,0.1846,0.1889,0.1937,0.1971,0.1988,0.2012,0.2067,0.2065,0.2079,0.209,0.2069,0.217,0.2165,0.2118,0.2078,0.2172,0.225,0.2273,0.1965,0.1962,0.1961,0.1959,0,0,0.1657,0.1755,0.1761,0.1796,0.1877,0.1905,0.1974,0.2042,0.208,0.2125,0.2183,0.2219,0.2226,0.2225,0.2217,0.2287,0.2445,0.226,0.226,0.2355,0.2624,0.2651,0.2678,0.2428,0.2431,0.2434,0.2648,0,0.1675,0.1751,0.1798,0.1868,0.1914,0.1969,0.2025,0.2089,0.2137,0.22,0.2249,0.229,0.2275,0.2291,0.2369,0.241,0.2506,0.2392,0.2507,0.2511,0.2534,0.2705,0.2642,0.283,0.267,0.2674,0.2677,0,0.1687,0.1741,0.1815,0.1902,0.1926,0.1966,0.2058,0.2111,0.2216,0.2256,0.2333,0.2363,0.2478,0.2438,0.2614,0.2545,0.2607,0.2649,0.2656,0.2649,0.2581,0.2702,0.2877,0.2775,0.2712,0.2709,0.2706,0,0.1648,0.1745,0.1803,0.1835,0.1942,0.1975,0.2023,0.2121,0.2187,0.2292,0.2366,0.2471,0.2549,0.2643,0.2745,0.269,0.2943,0.2862,0.2957,0.2959,0.2912,0.2903,0.3009,0.301,0.301,0.3009,0.3009,0,0.1652,0.1694,0.1783,0.1815,0.1873,0.1945,0.2018,0.2078,0.22,0.2294,0.2388,0.2497,0.2608,0.2756,0.2813,0.299,0.3006,0.3028,0.3036,0.2957,0.295,0.2858,0.2788,0.3017,0.3016,0.3014,0.3013,0,0.1614,0.168,0.1738,0.1833,0.186,0.1892,0.2014,0.2072,0.2191,0.2325,0.2373,0.2567,0.276,0.2889,0.306,0.3099,0.3156,0.3276,0.3191,0.3186,0.3146,0.3086,0.3101,0.3007,0.3425,0.3427,0.3429,0,0.161,0.164,0.1725,0.1757,0.1799,0.1867,0.1922,0.2044,0.2122,0.2367,0.2436,0.2678,0.2833,0.3134,0.3253,0.3417,0.3264,0.3436,0.3313,0.3199,0.3137,0.2961,0.2865,0.3315,0.3315,0.3316,0.3316,0,0.1597,0.162,0.1671,0.1723,0.1774,0.1842,0.1927,0.1996,0.2157,0.2299,0.2499,0.2647,0.2975,0.3137,0.3375,0.345,0.3269,0.3455,0.3357,0.3107,0.2903,0.2796,0.3121,0.3322,0.3322,0.3321,0.3321,0.3321,0.1574,0.1592,0.1645,0.1691,0.1745,0.1799,0.1834,0.1953,0.2083,0.2276,0.2457,0.267,0.2968,0.3306,0.3357,0.3427,0.3344,0.3352,0.3311,0.316,0.3,0.336,0.3542,0.3542,0.3543,0.3543,0.3544,0,0.1544,0.1573,0.1613,0.1661,0.1685,0.1734,0.1828,0.1862,0.1976,0.2199,0.2372,0.2707,0.2927,0.3137,0.3344,0.3281,0.3102,0.3202,0.292,0.2846,0.3213,0.3135,0.3211,0.3211,0.3211,0.3211,0.3211,0.3211,0.153,0.1552,0.1571,0.1591,0.1618,0.1634,0.1668,0.1737,0.1869,0.2084,0.2282,0.2481,0.2845,0.3145,0.3173,0.311,0.2825,0.2767,0.2689,0.2927,0.2934,0.2941,0.2852,0.2868,0.2867,0.2209,0.2204,0.2201]},{"header":{"parameterUnit":"m.s-1","parameterCategory":2,"la1":30.2991,"la2":30.254,"lo1":-89.0895,"lo2":-89.0444,"dy":0.0017,"dx":0.0017,"nx":28,"ny":28,"refTime":"2025-04-21T21:00:00:Z","depth":"0","parameterNumber":3,"parameterNumberName":"V-component_of_CURRENTS"},"data":[0,0,0,0,0,0,0,0,0,0,0,0,0,0,0,0,0,0,0,0,0,0,0,0,0,0,0,0,0,0,0,0,0,0,0,0,0,0,0,0,0,0,0,0,0,0,0,0,0,0,0,0,0,0,0,0,0,0,0.019,0.0189,0,0.0052,0.005,0.0048,-0.0048,-0.0049,-0.0049,-0.0049,-0.0261,-0.0266,-0.0271,0,0,0,0,0,0,0,0,0,0,0,0,0,0.0296,0.0295,0.019,0.0189,0.0187,0.0052,0.005,0.0047,-0.0048,-0.0049,-0.0049,-0.0049,-0.0259,-0.0265,-0.0272,0,0,0,0,0,0,0,0,0,0,0,0,0,0.0208,0.0294,0.019,0.0128,0.0121,0.0053,0.005,0.0047,-0.0048,-0.0049,-0.0049,-0.0049,-0.0257,-0.0265,-0.0273,-0.0317,0,0,-0.0297,-0.0301,0,0,0,0,0,0,0,0,0.0213,0.0203,0.0138,0.0132,0.0124,0.0024,0.001,-0.0077,-0.0048,0.001,-0.0049,-0.0049,-0.0168,-0.0184,-0.0216,-0.0327,-0.0336,-0.0298,-0.0303,-0.0307,-0.0309,0,0,0,0,0,0,0,0.0219,0.0208,0.0129,0.0137,0.0129,0.0082,0.0069,-0.0007,-0.0082,0.0005,-0.0001,-0.0007,-0.0173,-0.0208,-0.0222,-0.0339,-0.0298,-0.0305,-0.031,-0.0313,-0.051,-0.051,0,0,0,0,0,0,0.0252,0.0215,0.0134,0.0126,0.0175,0.0081,0.0066,0.0052,-0.008,-0.0097,-0.0007,-0.0011,-0.0194,-0.0212,-0.023,-0.0282,-0.0307,-0.0314,-0.0319,-0.0509,-0.051,-0.051,0,0,0,0,0,0,0.0255,0.0246,0.0139,0.0172,0.0156,0.008,0.0064,0.0049,0.0018,-0.0086,-0.0107,-0.0021,-0.0195,-0.0218,-0.0306,-0.0291,-0.0318,-0.0325,-0.0509,-0.0509,-0.051,-0.0391,0,0,0,0,0,0,0.0258,0.0247,0.0248,0.0174,0.0156,0.0114,0.0065,0.0047,0.0018,0.001,-0.0105,-0.0125,-0.0197,-0.0293,-0.0314,-0.0303,-0.0332,-0.0509,-0.0509,-0.051,-0.0394,-0.0387,-0.0381,0,0,0,0,0,0.0262,0.0279,0.0249,0.024,0.0159,0.0115,0.0101,0.0042,0.0018,0.0011,-0.0081,-0.0122,-0.0311,-0.03,-0.0325,-0.0315,-0.0508,-0.0509,-0.051,-0.0397,-0.0389,-0.0381,0,0,0,0,0,0,0.0325,0.0268,0.0235,0.0231,0.0182,0.0102,0.0097,0.0052,-0.0025,-0.0033,-0.0138,-0.0165,-0.0234,-0.0296,-0.0282,-0.0375,-0.0411,-0.0417,-0.0318,-0.0311,-0.0304,-0.0248,-0.0338,0,0,0,0,0,0.0341,0.0337,0.0268,0.0266,0.0247,0.0171,0.0147,0.0106,0.0032,-0.0001,-0.0085,-0.0175,-0.0257,-0.0299,-0.0381,-0.0436,-0.0455,-0.0443,-0.0437,-0.043,-0.0403,-0.0436,-0.0429,-0.0512,-0.0512,-0.0512,0,0,0.0366,0.0335,0.0332,0.028,0.0236,0.021,0.0154,0.013,0.0105,-0.0013,-0.0074,-0.0159,-0.0269,-0.0333,-0.0367,-0.0381,-0.0414,-0.0431,-0.0425,-0.04,-0.0436,-0.0427,-0.042,-0.0513,-0.0513,-0.0513,0,0,0.0411,0.0386,0.0388,0.0354,0.0303,0.0256,0.0256,0.0177,0.0141,0.0074,-0.0018,-0.009,-0.0215,-0.0286,-0.0339,-0.0344,-0.0381,-0.0372,-0.029,-0.0323,-0.0315,-0.0308,-0.0297,-0.0291,-0.0364,-0.0363,-0.0363,0,0.0441,0.0429,0.0384,0.0371,0.0355,0.0283,0.0277,0.0229,0.0131,0.0107,0.0074,-0.0094,-0.0186,-0.026,-0.0264,-0.0324,-0.0334,-0.0307,-0.0309,-0.0303,-0.0299,-0.0289,-0.0284,-0.0358,-0.0358,-0.0359,-0.0359,0,0.0467,0.0463,0.0469,0.0425,0.0401,0.0395,0.0327,0.0297,0.0251,0.0198,0.0128,0.0007,-0.0085,-0.0127,-0.02,-0.022,-0.0233,-0.0296,-0.0315,-0.0282,-0.0276,-0.0271,-0.035,-0.0352,-0.0353,-0.0355,0,0,0.0524,0.0493,0.0494,0.049,0.0435,0.042,0.0395,0.035,0.0343,0.0261,0.0247,0.0113,0.0067,0.0004,-0.0091,-0.0117,-0.0097,-0.0176,-0.0181,-0.0138,-0.0128,-0.0136,-0.0133,-0.0158,-0.0158,-0.0157,-0.0126,0,0.0556,0.056,0.0531,0.0539,0.0538,0.0484,0.0469,0.0423,0.0377,0.0346,0.0256,0.0194,0.011,0.0071,0.0035,-0.008,-0.0085,-0.0097,-0.019,-0.0191,-0.0182,-0.0129,-0.013,-0.0103,-0.0123,-0.0122,-0.0122,0,0.0587,0.0588,0.0603,0.0603,0.0598,0.0589,0.057,0.0545,0.0489,0.0458,0.0406,0.0329,0.0266,0.0192,0.0084,0.0083,0.0006,-0.0067,-0.0069,-0.0111,-0.0192,-0.015,-0.0096,-0.0295,-0.0116,-0.0117,-0.0117,0,0.0646,0.0646,0.0668,0.0662,0.0639,0.0642,0.0626,0.058,0.0585,0.0529,0.0545,0.0443,0.0409,0.03,0.0157,0.0121,0.0061,-0.0023,-0.0086,-0.0087,-0.0122,-0.0127,-0.0249,-0.0066,-0.0066,-0.0067,-0.0067,0,0.0697,0.0719,0.07,0.0708,0.0741,0.0702,0.0731,0.0696,0.0687,0.0725,0.0613,0.0639,0.0437,0.037,0.0225,0.0106,0.0114,-0.0037,-0.0076,-0.008,-0.0082,-0.0287,-0.038,-0.0065,-0.0066,-0.0066,-0.0066,0,0.0759,0.0748,0.0773,0.0763,0.0767,0.0785,0.0806,0.0832,0.0815,0.0869,0.0867,0.0795,0.0709,0.0528,0.035,0.0209,-0.0023,0.0025,0.006,0.0023,-0.0239,-0.0324,-0.0433,-0.0505,-0.0033,-0.0033,-0.0033,0,0.0789,0.0808,0.0814,0.0837,0.0835,0.0864,0.0892,0.0884,0.0933,0.0984,0.1033,0.0971,0.0959,0.0714,0.0427,0.02,0.0012,0.0042,-0.0044,-0.022,-0.0346,-0.0413,-0.0471,-0.0033,-0.0033,-0.0033,-0.0033,0,0.0843,0.0842,0.0857,0.0905,0.094,0.0994,0.1045,0.1114,0.1143,0.1214,0.1307,0.1308,0.1075,0.084,0.0503,0.0311,-0.0088,0.0035,-0.0174,-0.0356,-0.041,-0.051,-0.0062,-0.0033,-0.0033,-0.0033,-0.0033,-0.0033,0.0879,0.0903,0.0924,0.0976,0.103,0.1127,0.1199,0.129,0.1409,0.1542,0.1528,0.1567,0.1195,0.0731,0.0451,-0.0096,-0.0081,-0.027,-0.0352,-0.0399,-0.0494,-0.0015,-0.0029,-0.0029,-0.0029,-0.0029,-0.0029,0,0.0913,0.0944,0.0997,0.1067,0.1152,0.1169,0.1306,0.1399,0.1572,0.1691,0.1779,0.1616,0.1169,0.0668,-0.0036,-0.0415,-0.057,-0.0637,-0.0761,-0.0798,-0.04,-0.0432,-0.0502,-0.0502,-0.0502,-0.0501,-0.0501,-0.0501,0.0937,0.0986,0.1016,0.1158,0.1227,0.1356,0.1448,0.1594,0.1705,0.1852,0.1874,0.1862,0.1458,0.0235,-0.062,-0.0823,-0.1107,-0.1146,-0.1273,-0.1054,-0.1028,-0.1003,-0.1059,-0.1259,-0.126,-0.1646,-0.165,-0.1653]}],[{"header":{"parameterUnit":"m.s-1","parameterCategory":2,"la1":30.2991,"la2":30.254,"lo1":-89.0895,"lo2":-89.0444,"dy":0.0017,"dx":0.0017,"nx":28,"ny":28,"refTime":"2025-04-21T21:00:00:Z","depth":"2","parameterNumber":2,"parameterNumberName":"U-component_of_CURRENTS"},"data":[0,0,0,0,0,0,0,0,0,0,0,0,0,0,0,0,0,0,0,0,0,0,0,0,0,0,0,0,0,0,0,0,0,0,0,0,0,0,0,0,0,0,0,0,0,0,0,0,0,0,0,0,0,0,0,0,0,0,0.1777,0.1778,0,0.1792,0.1792,0.1792,0.1784,0.1784,0.1784,0.1784,0.1724,0.1722,0.1721,0,0,0,0,0,0,0,0,0,0,0,0,0,0.1786,0.1785,0.1777,0.1778,0.1778,0.1792,0.1792,0.1792,0.1784,0.1784,0.1784,0.1784,0.1724,0.1723,0.1721,0,0,0,0,0,0,0,0,0,0,0,0,0,0.1786,0.1785,0.1777,0.1779,0.178,0.1792,0.1792,0.1792,0.1784,0.1784,0.1784,0.1784,0.1725,0.1723,0.172,0.1707,0,0,0.1713,0.1712,0,0,0,0,0,0,0,0,0.1786,0.1785,0.1778,0.1779,0.178,0.179,0.1774,0.1761,0.1784,0.1778,0.1784,0.1784,0.1742,0.1738,0.1736,0.1704,0.1701,0.1713,0.1712,0.1711,0.171,0,0,0,0,0,0,0,0.1786,0.1785,0.1779,0.1779,0.178,0.1795,0.1794,0.1771,0.1755,0.1779,0.1779,0.1788,0.1741,0.1739,0.1735,0.17,0.1713,0.1711,0.171,0.1709,0.1713,0.1714,0,0,0,0,0,0,0.179,0.1784,0.1779,0.178,0.1787,0.1795,0.1794,0.1783,0.1757,0.1755,0.1788,0.1787,0.1743,0.1737,0.1732,0.1782,0.1711,0.1708,0.1707,0.1711,0.1713,0.1715,0,0,0,0,0,0,0.1789,0.1788,0.1778,0.1787,0.1787,0.1795,0.1784,0.1784,0.1794,0.1766,0.1761,0.18,0.1742,0.1736,0.1736,0.1777,0.1707,0.1705,0.1709,0.1712,0.1714,0.1837,0,0,0,0,0,0,0.1789,0.1787,0.1781,0.1786,0.1787,0.1797,0.1784,0.1784,0.1801,0.1801,0.1774,0.1768,0.1742,0.174,0.1733,0.1772,0.1703,0.1707,0.171,0.1713,0.1831,0.1844,0.1854,0,0,0,0,0,0.1789,0.1778,0.1779,0.178,0.1777,0.1799,0.18,0.1803,0.1802,0.1811,0.1801,0.177,0.1754,0.1739,0.1731,0.177,0.1706,0.171,0.1713,0.1826,0.1841,0.1854,0,0,0,0,0,0,0.1762,0.1777,0.1778,0.1767,0.179,0.1799,0.1805,0.1814,0.1814,0.1809,0.1784,0.1777,0.1794,0.1762,0.1746,0.178,0.1726,0.1728,0.1815,0.1829,0.184,0.1857,0.1701,0,0,0,0,0,0.1758,0.1765,0.178,0.1775,0.1784,0.1799,0.1808,0.1815,0.1819,0.182,0.181,0.1798,0.1801,0.1798,0.1784,0.1797,0.1811,0.1818,0.1829,0.1839,0.1848,0.1912,0.1931,0.1726,0.1726,0.1726,0,0,0.1745,0.1758,0.1758,0.1774,0.1785,0.1802,0.1803,0.1822,0.1846,0.1811,0.1834,0.1832,0.1812,0.1836,0.184,0.1815,0.1911,0.1844,0.1853,0.1856,0.1918,0.1938,0.1956,0.1728,0.1728,0.1728,0,0,0.1735,0.1735,0.1742,0.1765,0.1795,0.1809,0.1821,0.1843,0.1863,0.1888,0.1881,0.1912,0.1894,0.1912,0.1912,0.1975,0.1967,0.1966,0.2041,0.2104,0.2122,0.2138,0.2213,0.2235,0.1975,0.1975,0.1975,0,0.1722,0.1725,0.1748,0.1767,0.1788,0.1816,0.1832,0.186,0.1885,0.1917,0.1905,0.1949,0.1937,0.1994,0.2027,0.2004,0.204,0.1994,0.2123,0.2138,0.2152,0.2225,0.2247,0.1981,0.1981,0.198,0.1979,0,0.1727,0.1729,0.1737,0.1772,0.18,0.182,0.1864,0.1901,0.1931,0.1967,0.2036,0.2045,0.2074,0.2089,0.2078,0.2179,0.2175,0.2132,0.2095,0.2181,0.2252,0.2273,0.1991,0.1988,0.1986,0.1985,0,0,0.168,0.1733,0.1729,0.1753,0.1805,0.183,0.1884,0.195,0.2008,0.2052,0.2133,0.2175,0.2201,0.2205,0.2213,0.2283,0.2433,0.2263,0.2263,0.235,0.2599,0.2504,0.2518,0.242,0.2423,0.2426,0.262,0,0.1672,0.1713,0.1739,0.1774,0.1797,0.1851,0.1911,0.1981,0.2045,0.2132,0.219,0.2257,0.2238,0.2277,0.2345,0.2403,0.2488,0.2385,0.2489,0.2493,0.2408,0.2538,0.2323,0.2468,0.264,0.2643,0.2646,0,0.1654,0.1691,0.1727,0.1799,0.1815,0.1852,0.1964,0.2023,0.2151,0.2205,0.2291,0.2332,0.245,0.2413,0.2578,0.2516,0.2573,0.262,0.2627,0.2506,0.2436,0.2401,0.2499,0.268,0.2677,0.2675,0.2673,0,0.1622,0.1671,0.1708,0.1731,0.1821,0.1865,0.1931,0.2053,0.2119,0.2268,0.2331,0.2451,0.2528,0.2616,0.2699,0.2659,0.2878,0.2821,0.2798,0.2792,0.2609,0.258,0.295,0.295,0.295,0.2949,0.2948,0,0.1601,0.1626,0.1702,0.1724,0.1794,0.1867,0.1962,0.205,0.2174,0.2277,0.2372,0.2468,0.2587,0.2704,0.2761,0.2851,0.2925,0.2848,0.2844,0.2647,0.262,0.2779,0.2757,0.2956,0.2955,0.2953,0.2952,0,0.1561,0.1606,0.165,0.1743,0.178,0.1839,0.1965,0.2034,0.2164,0.2301,0.2351,0.2517,0.2679,0.278,0.295,0.2927,0.302,0.3028,0.2794,0.2758,0.2884,0.2866,0.3041,0.304,0.3039,0.3038,0.3037,0,0.1555,0.1567,0.1653,0.1686,0.1729,0.1824,0.189,0.202,0.21,0.2329,0.2393,0.2586,0.2699,0.2896,0.292,0.3009,0.3053,0.2839,0.2704,0.2919,0.2899,0.2882,0.2866,0.2539,0.2534,0.253,0.2527,0,0.153,0.1551,0.1586,0.1655,0.1714,0.1789,0.1902,0.1951,0.2128,0.2239,0.2418,0.2526,0.2712,0.27,0.2786,0.28,0.2797,0.2757,0.3082,0.252,0.2453,0.2429,0.2429,0.2491,0.2495,0.2497,0.2499,0.2501,0.1507,0.1516,0.1553,0.1617,0.1679,0.1751,0.1799,0.1907,0.2016,0.2154,0.2305,0.2387,0.2469,0.2477,0.2465,0.2466,0.2638,0.2527,0.2537,0.2552,0.243,0.2361,0.2362,0.2365,0.2367,0.237,0.2371,0,0.1463,0.1483,0.1523,0.1585,0.1619,0.1694,0.1795,0.1805,0.1899,0.2019,0.211,0.1984,0.2001,0.2106,0.2053,0.2075,0.2037,0.2004,0.1932,0.1971,0.2005,0.185,0.1632,0.1629,0.1626,0.1624,0,0,0.1443,0.1451,0.1467,0.1508,0.1561,0.1606,0.1652,0.1672,0.1729,0.1714,0.1737,0.1838,0.2005,0.1744,0.1756,0.1688,0.1804,0.1631,0.2231,0.2182,0.2212,0.2323,0.2131,0,0,0,0,0]},{"header":{"parameterUnit":"m.s-1","parameterCategory":2,"la1":30.2991,"la2":30.254,"lo1":-89.0895,"lo2":-89.0444,"dy":0.0017,"dx":0.0017,"nx":28,"ny":28,"refTime":"2025-04-21T21:00:00:Z","depth":"2","parameterNumber":3,"parameterNumberName":"V-component_of_CURRENTS"},"data":[0,0,0,0,0,0,0,0,0,0,0,0,0,0,0,0,0,0,0,0,0,0,0,0,0,0,0,0,0,0,0,0,0,0,0,0,0,0,0,0,0,0,0,0,0,0,0,0,0,0,0,0,0,0,0,0,0,0,-0.0449,-0.045,0,-0.0406,-0.0405,-0.0403,-0.0327,-0.0327,-0.0326,-0.0326,-0.0445,-0.0449,-0.0453,0,0,0,0,0,0,0,0,0,0,0,0,0,-0.0429,-0.0429,-0.0449,-0.045,-0.045,-0.0406,-0.0405,-0.0403,-0.0327,-0.0327,-0.0326,-0.0326,-0.0444,-0.0449,-0.0453,0,0,0,0,0,0,0,0,0,0,0,0,0,-0.0407,-0.0429,-0.0449,-0.0415,-0.0412,-0.0407,-0.0405,-0.0402,-0.0327,-0.0327,-0.0326,-0.0325,-0.0443,-0.0448,-0.0453,-0.0501,0,0,-0.047,-0.0472,0,0,0,0,0,0,0,0,-0.0408,-0.0407,-0.042,-0.0418,-0.0415,-0.0381,-0.0442,-0.0447,-0.0328,-0.0348,-0.0326,-0.0325,-0.0447,-0.0451,-0.0427,-0.0506,-0.0511,-0.047,-0.0474,-0.0476,-0.0478,0,0,0,0,0,0,0,-0.041,-0.0408,-0.0421,-0.0421,-0.0417,-0.039,-0.0385,-0.0441,-0.0397,-0.0347,-0.0344,-0.0356,-0.0445,-0.0422,-0.043,-0.0513,-0.047,-0.0475,-0.0478,-0.0481,-0.061,-0.061,0,0,0,0,0,0,-0.044,-0.041,-0.0423,-0.0421,-0.0422,-0.0392,-0.0386,-0.0384,-0.0392,-0.0395,-0.0357,-0.0353,-0.0413,-0.0424,-0.0435,-0.0452,-0.0476,-0.0481,-0.0484,-0.061,-0.061,-0.061,0,0,0,0,0,0,-0.0439,-0.0441,-0.0425,-0.0424,-0.0421,-0.0394,-0.0391,-0.0383,-0.0349,-0.04,-0.0403,-0.0332,-0.0413,-0.0427,-0.0471,-0.0459,-0.0484,-0.0488,-0.0609,-0.061,-0.061,-0.0515,0,0,0,0,0,0,-0.0438,-0.044,-0.0426,-0.0425,-0.0423,-0.0411,-0.0393,-0.0383,-0.0364,-0.0358,-0.0381,-0.0391,-0.0413,-0.0462,-0.0476,-0.0466,-0.0493,-0.0609,-0.061,-0.061,-0.0518,-0.0512,-0.0507,0,0,0,0,0,-0.0437,-0.0434,-0.0425,-0.0427,-0.0411,-0.0412,-0.0405,-0.0378,-0.0364,-0.0343,-0.0363,-0.0389,-0.0474,-0.0467,-0.0483,-0.0475,-0.0609,-0.0609,-0.061,-0.052,-0.0513,-0.0507,0,0,0,0,0,0,-0.0402,-0.0427,-0.0417,-0.0415,-0.041,-0.0403,-0.039,-0.0375,-0.0366,-0.0363,-0.0398,-0.041,-0.0442,-0.0482,-0.0473,-0.0515,-0.0545,-0.0548,-0.0471,-0.0465,-0.046,-0.042,-0.0497,0,0,0,0,0,-0.0396,-0.0403,-0.0414,-0.0407,-0.0412,-0.0397,-0.0389,-0.0371,-0.0379,-0.0369,-0.0382,-0.0415,-0.0458,-0.0479,-0.0518,-0.055,-0.0573,-0.0555,-0.055,-0.0545,-0.0525,-0.0563,-0.0559,-0.0611,-0.0611,-0.0611,0,0,-0.0385,-0.0396,-0.0399,-0.0401,-0.0395,-0.0392,-0.0386,-0.0376,-0.0353,-0.0395,-0.0366,-0.0403,-0.0466,-0.0484,-0.0503,-0.0514,-0.0539,-0.0545,-0.054,-0.0522,-0.0563,-0.0558,-0.0553,-0.0612,-0.0612,-0.0612,0,0,-0.0376,-0.0374,-0.038,-0.0378,-0.0381,-0.0376,-0.0376,-0.0361,-0.0331,-0.0328,-0.0351,-0.0373,-0.0427,-0.0448,-0.0478,-0.0476,-0.0513,-0.0497,-0.0431,-0.0469,-0.0464,-0.0461,-0.0463,-0.0461,-0.0489,-0.0489,-0.0488,0,-0.0348,-0.0358,-0.0376,-0.0377,-0.037,-0.0373,-0.0361,-0.0343,-0.0329,-0.0308,-0.0313,-0.0355,-0.0405,-0.0433,-0.0417,-0.046,-0.0477,-0.0446,-0.0459,-0.0456,-0.0453,-0.0458,-0.0456,-0.0484,-0.0485,-0.0485,-0.0485,0,-0.0352,-0.0345,-0.0351,-0.0353,-0.0344,-0.0337,-0.0332,-0.0301,-0.0279,-0.0257,-0.0253,-0.0298,-0.0319,-0.0341,-0.0377,-0.0384,-0.0399,-0.0448,-0.0466,-0.0441,-0.0448,-0.0448,-0.0478,-0.0479,-0.0481,-0.0482,0,0,-0.0309,-0.0345,-0.033,-0.032,-0.0325,-0.0309,-0.0288,-0.0257,-0.0208,-0.0206,-0.0157,-0.0214,-0.0215,-0.0249,-0.0293,-0.0313,-0.0306,-0.0357,-0.0361,-0.034,-0.0359,-0.0404,-0.0408,-0.0358,-0.0358,-0.0358,-0.0363,0,-0.0289,-0.028,-0.0299,-0.0265,-0.0267,-0.0257,-0.0217,-0.0185,-0.0159,-0.0111,-0.015,-0.0131,-0.0191,-0.0182,-0.0219,-0.0284,-0.0304,-0.0298,-0.0402,-0.0404,-0.0433,-0.041,-0.0373,-0.0378,-0.0362,-0.0362,-0.0362,0,-0.0268,-0.0271,-0.0239,-0.0209,-0.0199,-0.0163,-0.0085,-0.0044,-0.0008,0.0014,0.0008,-0.002,-0.0044,-0.0101,-0.019,-0.0183,-0.0256,-0.0308,-0.0312,-0.0384,-0.045,-0.0407,-0.0378,-0.0362,-0.0362,-0.0362,-0.0362,0,-0.0215,-0.0209,-0.0172,-0.0166,-0.0144,-0.0092,-0.0045,0.0011,0.0068,0.0109,0.0139,0.0089,0.0088,-0.002,-0.014,-0.0158,-0.0239,-0.0291,-0.0398,-0.0401,-0.0405,-0.041,-0.0357,-0.0357,-0.0357,-0.0357,-0.0357,0,-0.0178,-0.0142,-0.0134,-0.011,-0.0021,-0.0015,0.0109,0.0146,0.02,0.0279,0.0221,0.0247,0.0108,0.0032,-0.0098,-0.0239,-0.0218,-0.0368,-0.0408,-0.0372,-0.0373,-0.0398,-0.0402,-0.0357,-0.0357,-0.0357,-0.0357,0,-0.0112,-0.0116,-0.0079,-0.0035,0.0005,0.0085,0.0205,0.0276,0.0326,0.0415,0.043,0.0377,0.029,0.0128,-0.0025,-0.0167,-0.0307,-0.0371,-0.03,-0.0333,-0.0446,-0.0446,-0.0468,-0.047,-0.0472,-0.0473,-0.0474,0,-0.0078,-0.006,0.0005,0.0051,0.0084,0.02,0.0285,0.0351,0.0416,0.0497,0.0528,0.0475,0.0425,0.0176,-0.0052,-0.0277,-0.032,-0.0399,-0.0445,-0.0422,-0.0459,-0.0456,-0.0454,-0.0395,-0.0396,-0.0396,-0.0396,0,-0.0037,-0.0008,0.0025,0.012,0.0207,0.0316,0.0433,0.0484,0.0573,0.0613,0.066,0.063,0.0439,0.0222,-0.0086,-0.0243,-0.0363,-0.0413,-0.0405,-0.0389,-0.0359,-0.0393,-0.0392,-0.0398,-0.0398,-0.0398,-0.0398,-0.0398,0.0005,0.0035,0.0078,0.0174,0.0285,0.0401,0.0482,0.0558,0.0639,0.0718,0.0723,0.0709,0.0508,0.0115,-0.0134,-0.0379,-0.0391,-0.0482,-0.0478,-0.0475,-0.0482,-0.0458,-0.0514,-0.0514,-0.0515,-0.0515,-0.0515,0,0.0005,0.0045,0.0127,0.0227,0.0336,0.0424,0.0554,0.0603,0.0665,0.0775,0.0807,0.0635,0.0391,0.017,-0.019,-0.0437,-0.0438,-0.0507,-0.0445,-0.0442,-0.044,-0.0443,-0.0466,-0.0466,-0.0467,-0.0467,0,0,-0.0002,0.0038,0.0069,0.0222,0.0342,0.0491,0.0565,0.0633,0.0713,0.078,0.0825,0.0799,0.0515,0.0261,-0.0057,-0.0247,-0.0289,-0.029,-0.0307,-0.0194,-0.0188,-0.0408,-0.0409,0,0,0,0,0]}],[{"header":{"parameterUnit":"m.s-1","parameterCategory":2,"la1":30.2991,"la2":30.254,"lo1":-89.0895,"lo2":-89.0444,"dy":0.0017,"dx":0.0017,"nx":28,"ny":28,"refTime":"2025-04-21T21:00:00:Z","depth":"4","parameterNumber":2,"parameterNumberName":"U-component_of_CURRENTS"},"data":[0,0,0,0,0,0,0,0,0,0,0,0,0,0,0,0,0,0,0,0,0,0,0,0,0,0,0,0,0,0,0,0,0,0,0,0,0,0,0,0,0,0,0,0,0,0,0,0,0,0,0,0,0,0,0,0,0,0,0.0885,0.0886,0,0.0921,0.0921,0.0921,0.0977,0.0978,0.0979,0.098,0.1098,0.11,0.1102,0,0,0,0,0,0,0,0,0,0,0,0,0,0.084,0.084,0.0885,0.0886,0.0886,0.092,0.0921,0.0921,0.0977,0.0978,0.0979,0.098,0.1097,0.11,0.1102,0,0,0,0,0,0,0,0,0,0,0,0,0,0.0866,0.0841,0.0885,0.0918,0.0921,0.092,0.0921,0.0922,0.0976,0.0978,0.0979,0.0981,0.1096,0.1099,0.1103,0.1093,0,0,0.1113,0.1114,0,0,0,0,0,0,0,0,0.0864,0.0867,0.0913,0.0916,0.0919,0.0946,0.0948,0.0983,0.0976,0.0955,0.098,0.0982,0.1054,0.106,0.1062,0.1098,0.1103,0.1113,0.1115,0.1116,0.1117,0,0,0,0,0,0,0,0.0862,0.0866,0.0899,0.0913,0.0917,0.0922,0.0927,0.0954,0.0997,0.0957,0.0961,0.0965,0.1056,0.1059,0.1066,0.1105,0.1113,0.1116,0.1118,0.1119,0.1311,0.1314,0,0,0,0,0,0,0.0858,0.0864,0.0898,0.09,0.0895,0.0922,0.0928,0.0936,0.0995,0.1005,0.0964,0.0967,0.1053,0.1062,0.107,0.1194,0.1116,0.1119,0.1121,0.1308,0.1312,0.1315,0,0,0,0,0,0,0.0857,0.0861,0.0897,0.0883,0.0888,0.0921,0.0929,0.0936,0.0975,0.0999,0.1011,0.1001,0.1054,0.1066,0.1124,0.1195,0.1121,0.1124,0.1304,0.1309,0.1314,0.1358,0,0,0,0,0,0,0.0855,0.086,0.0878,0.0883,0.0889,0.0924,0.0928,0.0935,0.0972,0.0979,0.1034,0.1044,0.1056,0.1119,0.1127,0.1198,0.1126,0.13,0.1307,0.1312,0.1353,0.1364,0.1373,0,0,0,0,0,0.0854,0.0865,0.0879,0.0884,0.0908,0.0925,0.0929,0.0956,0.0973,0.0996,0.1032,0.1044,0.1164,0.1122,0.1132,0.1205,0.1298,0.1305,0.1312,0.1348,0.1362,0.1373,0,0,0,0,0,0,0.0841,0.0872,0.0887,0.0905,0.0928,0.0935,0.0955,0.0974,0.1017,0.1033,0.1058,0.1071,0.1152,0.1172,0.1126,0.1284,0.1244,0.1253,0.1269,0.1282,0.1292,0.1232,0.1129,0,0,0,0,0,0.0848,0.0879,0.0896,0.0915,0.0926,0.0948,0.0963,0.0985,0.1013,0.1035,0.1073,0.1128,0.1182,0.1224,0.1263,0.1335,0.1312,0.14,0.141,0.1418,0.138,0.1405,0.1412,0.1338,0.1338,0.1338,0,0,0.0858,0.0869,0.0893,0.0917,0.0934,0.0954,0.0962,0.0995,0.1022,0.104,0.1103,0.1153,0.1205,0.1287,0.133,0.1319,0.1436,0.1427,0.1433,0.1389,0.1413,0.1419,0.1425,0.1343,0.1342,0.1341,0,0,0.0865,0.0892,0.0918,0.0935,0.0966,0.0979,0.0997,0.103,0.1061,0.1112,0.1151,0.1217,0.1304,0.1348,0.1383,0.147,0.1477,0.1539,0.1553,0.1581,0.1585,0.1589,0.1586,0.1589,0.1559,0.1559,0.1559,0,0.0876,0.0893,0.0927,0.094,0.0959,0.0994,0.1017,0.1045,0.1099,0.1129,0.1143,0.1273,0.1315,0.141,0.1454,0.1487,0.1504,0.1498,0.1588,0.1591,0.1594,0.159,0.1593,0.1562,0.1561,0.1561,0.1561,0,0.0888,0.0911,0.092,0.0957,0.099,0.101,0.1052,0.1101,0.1144,0.1169,0.1266,0.1316,0.1392,0.1454,0.1476,0.1563,0.1569,0.1583,0.1541,0.1603,0.1597,0.1599,0.1566,0.1565,0.1564,0.1563,0,0,0.0883,0.0925,0.0929,0.0954,0.0999,0.1028,0.1083,0.1137,0.1181,0.1242,0.1293,0.1395,0.1429,0.1468,0.1537,0.1572,0.1615,0.1601,0.1602,0.1568,0.1675,0.1637,0.1635,0.167,0.167,0.167,0.1667,0,0.0879,0.0906,0.0933,0.098,0.1004,0.1058,0.1095,0.1159,0.1223,0.128,0.1338,0.1415,0.1438,0.1508,0.1538,0.1602,0.1621,0.1613,0.1644,0.1642,0.1577,0.1635,0.1672,0.1668,0.1669,0.1669,0.1669,0,0.0874,0.0893,0.0934,0.0992,0.1008,0.105,0.1145,0.119,0.127,0.1322,0.1399,0.1439,0.1512,0.1517,0.1591,0.1603,0.1626,0.1652,0.1654,0.1587,0.1606,0.1594,0.1671,0.1671,0.1671,0.167,0.167,0,0.085,0.0897,0.0933,0.0952,0.1018,0.1068,0.1122,0.1212,0.1257,0.1372,0.1416,0.1486,0.1544,0.1574,0.1632,0.1629,0.1691,0.1688,0.1656,0.1653,0.1662,0.1658,0.1699,0.1699,0.1699,0.1699,0.1699,0,0.0823,0.0853,0.0933,0.0949,0.1,0.1073,0.1148,0.1216,0.1302,0.1351,0.1444,0.1493,0.1568,0.1615,0.1635,0.1656,0.1693,0.1637,0.1651,0.1688,0.1687,0.1664,0.166,0.1699,0.1699,0.1699,0.1699,0,0.0789,0.0831,0.0871,0.0952,0.0988,0.1039,0.1149,0.1192,0.1302,0.1376,0.1412,0.1512,0.1589,0.1642,0.1704,0.167,0.169,0.1687,0.1715,0.1733,0.1618,0.1617,0.1609,0.1608,0.1607,0.1606,0.1605,0,0.0767,0.0786,0.0868,0.0898,0.0942,0.1032,0.1071,0.1184,0.1235,0.1377,0.1388,0.1502,0.1563,0.1598,0.1671,0.1696,0.1693,0.1672,0.1625,0.1595,0.1609,0.161,0.1611,0.1603,0.1603,0.1603,0.1602,0,0.0722,0.0758,0.0793,0.0849,0.0906,0.096,0.1044,0.1065,0.1189,0.1285,0.1352,0.1409,0.1495,0.1552,0.1611,0.1622,0.1665,0.1659,0.166,0.1616,0.1588,0.1603,0.1605,0.1598,0.1599,0.1599,0.1599,0,0.069,0.07,0.0749,0.0797,0.0854,0.0882,0.0934,0.1001,0.1058,0.1208,0.1227,0.1365,0.1469,0.1516,0.1561,0.1588,0.1553,0.1491,0.15,0.1505,0.1482,0.1432,0.1392,0,0,0,0,0,0.0659,0.0667,0.0698,0.0741,0.0789,0.0829,0.0905,0.0958,0.1067,0.1082,0.1156,0.1237,0.1333,0.1404,0.1412,0.1516,0.1555,0.1519,0.1485,0.1576,0.1581,0.1569,0,0,0,0,0,0,0.0638,0.0665,0.0675,0.0686,0.0709,0.0755,0.08,0.087,0.0892,0.1012,0.1069,0.1172,0.1279,0.1321,0.1392,0.1415,0.1371,0.1607,0.1605,0.1573,0.1578,0.1581,0.1571,0,0,0,0,0]},{"header":{"parameterUnit":"m.s-1","parameterCategory":2,"la1":30.2991,"la2":30.254,"lo1":-89.0895,"lo2":-89.0444,"dy":0.0017,"dx":0.0017,"nx":28,"ny":28,"refTime":"2025-04-21T21:00:00:Z","depth":"4","parameterNumber":3,"parameterNumberName":"V-component_of_CURRENTS"},"data":[0,0,0,0,0,0,0,0,0,0,0,0,0,0,0,0,0,0,0,0,0,0,0,0,0,0,0,0,0,0,0,0,0,0,0,0,0,0,0,0,0,0,0,0,0,0,0,0,0,0,0,0,0,0,0,0,0,0,-0.0169,-0.0169,0,-0.0175,-0.0174,-0.0174,-0.0221,-0.0222,-0.0224,-0.0225,-0.0261,-0.0261,-0.026,0,0,0,0,0,0,0,0,0,0,0,0,0,-0.0161,-0.0161,-0.0169,-0.0169,-0.0169,-0.0175,-0.0174,-0.0174,-0.0221,-0.0223,-0.0224,-0.0226,-0.0261,-0.0261,-0.026,0,0,0,0,0,0,0,0,0,0,0,0,0,-0.0164,-0.0161,-0.0169,-0.0194,-0.0197,-0.0175,-0.0174,-0.0174,-0.0221,-0.0223,-0.0225,-0.0226,-0.0261,-0.0261,-0.026,-0.0219,0,0,-0.0259,-0.0259,0,0,0,0,0,0,0,0,-0.0164,-0.0164,-0.019,-0.0192,-0.0195,-0.0201,-0.0185,-0.0191,-0.022,-0.021,-0.0225,-0.0227,-0.0243,-0.0244,-0.0238,-0.0221,-0.0222,-0.0259,-0.0259,-0.0259,-0.0259,0,0,0,0,0,0,0,-0.0164,-0.0164,-0.017,-0.019,-0.0193,-0.0193,-0.0196,-0.0186,-0.0215,-0.0211,-0.0215,-0.0217,-0.0245,-0.0239,-0.024,-0.0223,-0.0259,-0.0259,-0.0258,-0.0258,-0.029,-0.0291,0,0,0,0,0,0,-0.0166,-0.0164,-0.0169,-0.017,-0.0186,-0.0192,-0.0195,-0.0196,-0.0214,-0.0219,-0.0215,-0.0219,-0.0238,-0.024,-0.0241,-0.0293,-0.0259,-0.0258,-0.0258,-0.0289,-0.029,-0.0291,0,0,0,0,0,0,-0.0165,-0.0166,-0.0169,-0.0168,-0.0169,-0.019,-0.019,-0.0195,-0.0214,-0.0218,-0.0224,-0.0235,-0.024,-0.0242,-0.0251,-0.0291,-0.0258,-0.0258,-0.0288,-0.0289,-0.0291,-0.0333,0,0,0,0,0,0,-0.0165,-0.0166,-0.0169,-0.0168,-0.0169,-0.0169,-0.0189,-0.0193,-0.0212,-0.0218,-0.0235,-0.0239,-0.0241,-0.0251,-0.025,-0.029,-0.0257,-0.0286,-0.0288,-0.029,-0.0331,-0.0336,-0.0341,0,0,0,0,0,-0.0165,-0.0162,-0.0169,-0.0171,-0.0173,-0.0169,-0.0169,-0.0189,-0.0211,-0.0215,-0.023,-0.024,-0.0265,-0.025,-0.0249,-0.0291,-0.0285,-0.0288,-0.029,-0.0328,-0.0335,-0.0341,0,0,0,0,0,0,-0.0142,-0.0166,-0.0175,-0.0175,-0.0178,-0.0178,-0.0182,-0.0197,-0.0209,-0.022,-0.0233,-0.0236,-0.027,-0.0263,-0.0247,-0.0307,-0.0285,-0.0287,-0.0314,-0.032,-0.0326,-0.0272,-0.0257,0,0,0,0,0,-0.0141,-0.0158,-0.0165,-0.0163,-0.0168,-0.0178,-0.0182,-0.0193,-0.0202,-0.0211,-0.0222,-0.0243,-0.0272,-0.0282,-0.0293,-0.0304,-0.0287,-0.0337,-0.0342,-0.0347,-0.0303,-0.0324,-0.0327,-0.0299,-0.0299,-0.0299,0,0,-0.0137,-0.0145,-0.0158,-0.0162,-0.0167,-0.0158,-0.0186,-0.0191,-0.019,-0.021,-0.0217,-0.0255,-0.0278,-0.0307,-0.0323,-0.031,-0.0352,-0.035,-0.0353,-0.0306,-0.0327,-0.033,-0.0332,-0.0301,-0.0301,-0.03,0,0,-0.0117,-0.0138,-0.0143,-0.0143,-0.0151,-0.0154,-0.0162,-0.017,-0.0188,-0.019,-0.023,-0.0268,-0.0293,-0.0319,-0.0338,-0.0366,-0.038,-0.0411,-0.039,-0.0414,-0.0416,-0.0417,-0.0421,-0.0422,-0.0412,-0.0413,-0.0413,0,-0.0112,-0.0104,-0.0139,-0.0126,-0.0122,-0.0154,-0.0138,-0.0152,-0.0163,-0.0173,-0.0196,-0.0258,-0.0286,-0.0331,-0.0358,-0.0376,-0.0393,-0.037,-0.0419,-0.042,-0.042,-0.0424,-0.0425,-0.0415,-0.0415,-0.0414,-0.0414,0,-0.0086,-0.0079,-0.0077,-0.0079,-0.0079,-0.0072,-0.0091,-0.0106,-0.0136,-0.0148,-0.0199,-0.0239,-0.0271,-0.0324,-0.0349,-0.0394,-0.0408,-0.0428,-0.04,-0.0425,-0.0428,-0.0428,-0.0418,-0.0417,-0.0417,-0.0416,0,0,-0.0082,-0.0067,-0.0066,-0.0054,-0.0054,-0.0053,-0.0056,-0.0067,-0.0078,-0.0117,-0.0128,-0.0208,-0.0244,-0.0265,-0.0331,-0.0362,-0.0404,-0.0403,-0.0404,-0.0398,-0.0459,-0.0461,-0.0461,-0.0458,-0.0458,-0.0458,-0.0467,0,-0.0051,-0.0021,-0.0018,0.0012,0.0023,0.0003,0.0008,-0.0011,-0.0042,-0.0061,-0.0128,-0.0165,-0.0222,-0.0266,-0.0303,-0.0377,-0.0402,-0.0398,-0.0438,-0.0437,-0.043,-0.0459,-0.0457,-0.0467,-0.0467,-0.0467,-0.0467,0,-0.0027,-0.0008,0.0022,0.0051,0.0053,0.0065,0.0051,0.0051,0.0015,-0.0013,-0.0059,-0.0105,-0.016,-0.0209,-0.0297,-0.0306,-0.0368,-0.042,-0.0423,-0.0393,-0.0438,-0.0431,-0.0466,-0.0466,-0.0466,-0.0466,-0.0466,0,-0.0022,0.002,0.0041,0.005,0.0074,0.0076,0.008,0.0058,0.0056,0.001,0.0002,-0.0062,-0.0103,-0.0177,-0.0284,-0.0301,-0.0377,-0.0407,-0.0455,-0.0456,-0.043,-0.0428,-0.0447,-0.0447,-0.0447,-0.0447,-0.0447,0,0.0002,0.0021,0.004,0.0051,0.0077,0.0084,0.0097,0.0083,0.0077,0.0082,0.0021,0.0005,-0.0104,-0.0166,-0.0256,-0.0349,-0.035,-0.0429,-0.0456,-0.0453,-0.0453,-0.0431,-0.0429,-0.0447,-0.0447,-0.0447,-0.0447,0,-0.0006,0.0011,0.0041,0.007,0.0079,0.0086,0.0117,0.0127,0.011,0.0115,0.0104,0.0051,-0.0028,-0.0128,-0.0249,-0.0311,-0.0401,-0.0439,-0.0409,-0.0437,-0.0464,-0.0465,-0.0461,-0.0462,-0.0462,-0.0462,-0.0462,0,-0.0009,0.0003,0.0042,0.0064,0.0078,0.0096,0.0119,0.0127,0.0145,0.0141,0.0151,0.0086,0.0037,-0.0104,-0.023,-0.0369,-0.0406,-0.044,-0.0456,-0.0438,-0.0464,-0.0464,-0.0465,-0.0462,-0.0462,-0.0462,-0.0462,0,-0.0003,0.0003,0.0029,0.0073,0.0103,0.0137,0.017,0.0192,0.0206,0.0196,0.0196,0.0125,0.0039,-0.0084,-0.0205,-0.0314,-0.0406,-0.0441,-0.0442,-0.0457,-0.0438,-0.0465,-0.0465,-0.0462,-0.0462,-0.0462,-0.0462,0,-0.0002,0.0017,0.0056,0.0093,0.0134,0.0178,0.019,0.0227,0.0246,0.0253,0.0248,0.0155,0.0096,-0.0057,-0.0168,-0.0272,-0.0297,-0.0328,-0.0335,-0.0336,-0.0311,-0.027,-0.0247,0,0,0,0,0,0.0009,0.0043,0.0082,0.0136,0.0173,0.0196,0.0236,0.0247,0.0264,0.0278,0.027,0.0194,0.0047,-0.0024,-0.0123,-0.0186,-0.0331,-0.0307,-0.0372,-0.0464,-0.0463,-0.0457,0,0,0,0,0,0,0.0027,0.0065,0.009,0.0163,0.0199,0.0247,0.0271,0.0279,0.0289,0.0289,0.0214,0.0173,0.0025,0.0109,-0.0122,-0.0156,-0.021,-0.0382,-0.0384,-0.0464,-0.0463,-0.0463,-0.0457,0,0,0,0,0]}]]